Year,Month,Day,Hour,Minute,Value (Times are PST for temperature in C)
2010,08,15,00,00,20.70
2010,08,15,00,01,20.70
2010,08,15,00,02,20.70
2010,08,15,00,03,20.60
2010,08,15,00,04,20.60
2010,08,15,00,05,20.60
2010,08,15,00,06,20.60
2010,08,15,00,07,20.60
2010,08,15,00,08,20.60
2010,08,15,00,09,20.70
2010,08,15,00,10,20.70
2010,08,15,00,11,20.70
2010,08,15,00,12,20.70
2010,08,15,00,13,20.70
2010,08,15,00,14,20.70
2010,08,15,00,15,20.80
2010,08,15,00,16,20.80
2010,08,15,00,17,20.80
2010,08,15,00,18,20.80
2010,08,15,00,19,20.80
2010,08,15,00,20,20.80
2010,08,15,00,21,20.80
2010,08,15,00,22,20.80
2010,08,15,00,23,20.80
2010,08,15,00,24,20.80
2010,08,15,00,25,20.80
2010,08,15,00,26,20.80
2010,08,15,00,27,20.80
2010,08,15,00,28,20.80
2010,08,15,00,29,20.80
2010,08,15,00,30,20.80
2010,08,15,00,31,20.70
2010,08,15,00,32,20.70
2010,08,15,00,33,20.70
2010,08,15,00,34,20.70
2010,08,15,00,35,20.70
2010,08,15,00,36,20.70
2010,08,15,00,37,20.60
2010,08,15,00,38,20.60
2010,08,15,00,39,20.60
2010,08,15,00,40,20.60
2010,08,15,00,41,20.50
2010,08,15,00,42,20.50
2010,08,15,00,43,20.50
2010,08,15,00,44,20.50
2010,08,15,00,45,20.40
2010,08,15,00,46,20.40
2010,08,15,00,47,20.40
2010,08,15,00,48,20.40
2010,08,15,00,49,20.30
2010,08,15,00,50,20.30
2010,08,15,00,51,20.20
2010,08,15,00,52,20.20
2010,08,15,00,53,20.20
2010,08,15,00,54,20.20
2010,08,15,00,55,20.20
2010,08,15,00,56,20.20
2010,08,15,00,57,20.20
2010,08,15,00,58,20.20
2010,08,15,00,59,20.20
2010,08,15,01,00,20.20
2010,08,15,01,01,20.20
2010,08,15,01,02,20.20
2010,08,15,01,03,20.20
2010,08,15,01,04,20.20
2010,08,15,01,05,20.20
2010,08,15,01,06,20.20
2010,08,15,01,07,20.20
2010,08,15,01,08,20.20
2010,08,15,01,09,20.20
2010,08,15,01,10,20.20
2010,08,15,01,11,20.20
2010,08,15,01,12,20.20
2010,08,15,01,13,20.10
2010,08,15,01,14,20.10
2010,08,15,01,15,20.10
2010,08,15,01,16,20.10
2010,08,15,01,17,20.10
2010,08,15,01,18,20.10
2010,08,15,01,19,20.10
2010,08,15,01,20,20.10
2010,08,15,01,21,20.10
2010,08,15,01,22,20.00
2010,08,15,01,23,19.90
2010,08,15,01,24,19.90
2010,08,15,01,25,19.90
2010,08,15,01,26,19.90
2010,08,15,01,27,19.80
2010,08,15,01,28,19.80
2010,08,15,01,29,19.70
2010,08,15,01,30,19.60
2010,08,15,01,31,19.60
2010,08,15,01,32,19.50
2010,08,15,01,33,19.50
2010,08,15,01,34,19.40
2010,08,15,01,35,19.40
2010,08,15,01,36,19.30
2010,08,15,01,37,19.30
2010,08,15,01,38,19.30
2010,08,15,01,39,19.30
2010,08,15,01,40,19.20
2010,08,15,01,41,19.20
2010,08,15,01,42,19.20
2010,08,15,01,43,19.10
2010,08,15,01,44,19.10
2010,08,15,01,45,19.10
2010,08,15,01,46,19.10
2010,08,15,01,47,19.10
2010,08,15,01,48,19.10
2010,08,15,01,49,19.10
2010,08,15,01,50,19.10
2010,08,15,01,51,19.10
2010,08,15,01,52,19.10
2010,08,15,01,53,19.10
2010,08,15,01,54,19.10
2010,08,15,01,55,19.10
2010,08,15,01,56,19.10
2010,08,15,01,57,19.10
2010,08,15,01,58,19.10
2010,08,15,01,59,19.10
2010,08,15,02,00,19.00
2010,08,15,02,01,19.00
2010,08,15,02,02,18.90
2010,08,15,02,03,18.90
2010,08,15,02,04,18.90
2010,08,15,02,05,18.90
2010,08,15,02,06,18.90
2010,08,15,02,07,18.90
2010,08,15,02,08,18.90
2010,08,15,02,09,18.90
2010,08,15,02,10,18.90
2010,08,15,02,11,18.90
2010,08,15,02,12,18.90
2010,08,15,02,13,18.90
2010,08,15,02,14,18.80
2010,08,15,02,15,18.80
2010,08,15,02,16,18.80
2010,08,15,02,17,18.80
2010,08,15,02,18,18.80
2010,08,15,02,19,18.80
2010,08,15,02,20,18.80
2010,08,15,02,21,18.80
2010,08,15,02,22,18.80
2010,08,15,02,23,18.80
2010,08,15,02,24,18.80
2010,08,15,02,25,18.80
2010,08,15,02,26,18.80
2010,08,15,02,27,18.70
2010,08,15,02,28,18.70
2010,08,15,02,29,18.70
2010,08,15,02,30,18.70
2010,08,15,02,31,18.70
2010,08,15,02,32,18.60
2010,08,15,02,33,18.60
2010,08,15,02,34,18.60
2010,08,15,02,35,18.60
2010,08,15,02,36,18.60
2010,08,15,02,37,18.60
2010,08,15,02,38,18.60
2010,08,15,02,39,18.50
2010,08,15,02,40,18.50
2010,08,15,02,41,18.50
2010,08,15,02,42,18.50
2010,08,15,02,43,18.50
2010,08,15,02,44,18.40
2010,08,15,02,45,18.40
2010,08,15,02,46,18.40
2010,08,15,02,47,18.40
2010,08,15,02,48,18.40
2010,08,15,02,49,18.40
2010,08,15,02,50,18.40
2010,08,15,02,51,18.40
2010,08,15,02,52,18.30
2010,08,15,02,53,18.30
2010,08,15,02,54,18.30
2010,08,15,02,55,18.30
2010,08,15,02,56,18.20
2010,08,15,02,57,18.20
2010,08,15,02,58,18.20
2010,08,15,02,59,18.20
2010,08,15,03,00,18.20
2010,08,15,03,01,18.20
2010,08,15,03,02,18.20
2010,08,15,03,03,18.20
2010,08,15,03,04,18.20
2010,08,15,03,05,18.20
2010,08,15,03,06,18.20
2010,08,15,03,07,18.20
2010,08,15,03,08,18.20
2010,08,15,03,09,18.20
2010,08,15,03,10,18.20
2010,08,15,03,11,18.20
2010,08,15,03,12,18.20
2010,08,15,03,13,18.10
2010,08,15,03,14,18.10
2010,08,15,03,15,18.10
2010,08,15,03,16,18.10
2010,08,15,03,17,18.10
2010,08,15,03,18,18.00
2010,08,15,03,19,17.90
2010,08,15,03,20,17.90
2010,08,15,03,21,17.90
2010,08,15,03,22,17.90
2010,08,15,03,23,17.90
2010,08,15,03,24,17.90
2010,08,15,03,25,17.90
2010,08,15,03,26,17.90
2010,08,15,03,27,17.90
2010,08,15,03,28,17.90
2010,08,15,03,29,18.10
2010,08,15,03,30,18.10
2010,08,15,03,31,18.10
2010,08,15,03,32,18.10
2010,08,15,03,33,18.10
2010,08,15,03,34,18.10
2010,08,15,03,35,18.10
2010,08,15,03,36,18.00
2010,08,15,03,37,18.00
2010,08,15,03,38,18.00
2010,08,15,03,39,17.90
2010,08,15,03,40,18.00
2010,08,15,03,41,18.10
2010,08,15,03,42,18.10
2010,08,15,03,43,18.10
2010,08,15,03,44,18.10
2010,08,15,03,45,18.10
2010,08,15,03,46,18.10
2010,08,15,03,47,18.10
2010,08,15,03,48,17.90
2010,08,15,03,49,17.90
2010,08,15,03,50,17.90
2010,08,15,03,51,17.90
2010,08,15,03,52,17.90
2010,08,15,03,53,17.90
2010,08,15,03,54,17.90
2010,08,15,03,55,17.90
2010,08,15,03,56,17.90
2010,08,15,03,57,17.90
2010,08,15,03,58,17.90
2010,08,15,03,59,17.80
2010,08,15,04,00,17.80
2010,08,15,04,01,17.80
2010,08,15,04,02,17.80
2010,08,15,04,03,17.80
2010,08,15,04,04,17.70
2010,08,15,04,05,17.70
2010,08,15,04,06,17.70
2010,08,15,04,07,17.70
2010,08,15,04,08,17.70
2010,08,15,04,09,17.70
2010,08,15,04,10,17.70
2010,08,15,04,11,17.70
2010,08,15,04,12,17.70
2010,08,15,04,13,17.70
2010,08,15,04,14,17.70
2010,08,15,04,15,17.70
2010,08,15,04,16,17.70
2010,08,15,04,17,17.70
2010,08,15,04,18,17.70
2010,08,15,04,19,17.60
2010,08,15,04,20,17.60
2010,08,15,04,21,17.60
2010,08,15,04,22,17.60
2010,08,15,04,23,17.60
2010,08,15,04,24,17.60
2010,08,15,04,25,17.60
2010,08,15,04,26,17.60
2010,08,15,04,27,17.60
2010,08,15,04,28,17.60
2010,08,15,04,29,17.60
2010,08,15,04,30,17.60
2010,08,15,04,31,17.60
2010,08,15,04,32,17.60
2010,08,15,04,33,17.70
2010,08,15,04,34,17.70
2010,08,15,04,35,17.70
2010,08,15,04,36,17.80
2010,08,15,04,37,17.90
2010,08,15,04,38,17.90
2010,08,15,04,39,18.10
2010,08,15,04,40,18.10
2010,08,15,04,41,18.20
2010,08,15,04,42,18.20
2010,08,15,04,43,18.30
2010,08,15,04,44,18.30
2010,08,15,04,45,18.40
2010,08,15,04,46,18.50
2010,08,15,04,47,18.50
2010,08,15,04,48,18.60
2010,08,15,04,49,18.70
2010,08,15,04,50,18.70
2010,08,15,04,51,18.80
2010,08,15,04,52,18.90
2010,08,15,04,53,18.90
2010,08,15,04,54,18.90
2010,08,15,04,55,18.90
2010,08,15,04,56,19.10
2010,08,15,04,57,19.10
2010,08,15,04,58,19.10
2010,08,15,04,59,19.10
2010,08,15,05,00,19.10
2010,08,15,05,01,19.20
2010,08,15,05,02,19.20
2010,08,15,05,03,19.30
2010,08,15,05,04,19.30
2010,08,15,05,05,19.30
2010,08,15,05,06,19.30
2010,08,15,05,07,19.40
2010,08,15,05,08,19.40
2010,08,15,05,09,19.40
2010,08,15,05,10,19.50
2010,08,15,05,11,19.50
2010,08,15,05,12,19.60
2010,08,15,05,13,19.60
2010,08,15,05,14,19.60
2010,08,15,05,15,19.70
2010,08,15,05,16,19.70
2010,08,15,05,17,19.70
2010,08,15,05,18,19.70
2010,08,15,05,19,19.70
2010,08,15,05,20,19.70
2010,08,15,05,21,19.80
2010,08,15,05,22,19.80
2010,08,15,05,23,19.80
2010,08,15,05,24,19.80
2010,08,15,05,25,19.80
2010,08,15,05,26,19.80
2010,08,15,05,27,19.80
2010,08,15,05,28,19.80
2010,08,15,05,29,19.80
2010,08,15,05,30,19.80
2010,08,15,05,31,19.70
2010,08,15,05,32,19.70
2010,08,15,05,33,19.70
2010,08,15,05,34,19.60
2010,08,15,05,35,19.60
2010,08,15,05,36,19.50
2010,08,15,05,37,19.50
2010,08,15,05,38,19.40
2010,08,15,05,39,19.40
2010,08,15,05,40,19.30
2010,08,15,05,41,19.30
2010,08,15,05,42,19.20
2010,08,15,05,43,19.10
2010,08,15,05,44,19.10
2010,08,15,05,45,19.00
2010,08,15,05,46,18.90
2010,08,15,05,47,18.90
2010,08,15,05,48,18.90
2010,08,15,05,49,18.80
2010,08,15,05,50,18.80
2010,08,15,05,51,18.70
2010,08,15,05,52,18.70
2010,08,15,05,53,18.60
2010,08,15,05,54,18.60
2010,08,15,05,55,18.50
2010,08,15,05,56,18.50
2010,08,15,05,57,18.40
2010,08,15,05,58,18.40
2010,08,15,05,59,18.30
2010,08,15,06,00,18.30
2010,08,15,06,01,18.20
2010,08,15,06,02,18.20
2010,08,15,06,03,18.20
2010,08,15,06,04,18.20
2010,08,15,06,05,18.20
2010,08,15,06,06,18.20
2010,08,15,06,07,18.20
2010,08,15,06,08,18.20
2010,08,15,06,09,18.20
2010,08,15,06,10,18.20
2010,08,15,06,11,18.20
2010,08,15,06,12,18.20
2010,08,15,06,13,18.20
2010,08,15,06,14,18.20
2010,08,15,06,15,18.20
2010,08,15,06,16,18.20
2010,08,15,06,17,18.20
2010,08,15,06,18,18.20
2010,08,15,06,19,18.30
2010,08,15,06,20,18.30
2010,08,15,06,21,18.30
2010,08,15,06,22,18.40
2010,08,15,06,23,18.40
2010,08,15,06,24,18.40
2010,08,15,06,25,18.40
2010,08,15,06,26,18.50
2010,08,15,06,27,18.50
2010,08,15,06,28,18.60
2010,08,15,06,29,18.60
2010,08,15,06,30,18.70
2010,08,15,06,31,18.70
2010,08,15,06,32,18.70
2010,08,15,06,33,18.80
2010,08,15,06,34,18.80
2010,08,15,06,35,18.80
2010,08,15,06,36,18.90
2010,08,15,06,37,18.90
2010,08,15,06,38,18.90
2010,08,15,06,39,18.90
2010,08,15,06,40,18.90
2010,08,15,06,41,18.90
2010,08,15,06,42,19.00
2010,08,15,06,43,19.10
2010,08,15,06,44,19.10
2010,08,15,06,45,19.10
2010,08,15,06,46,19.10
2010,08,15,06,47,19.10
2010,08,15,06,48,19.10
2010,08,15,06,49,19.10
2010,08,15,06,50,19.10
2010,08,15,06,51,19.10
2010,08,15,06,52,19.20
2010,08,15,06,53,19.20
2010,08,15,06,54,19.20
2010,08,15,06,55,19.20
2010,08,15,06,56,19.20
2010,08,15,06,57,19.30
2010,08,15,06,58,19.30
2010,08,15,06,59,19.30
2010,08,15,07,00,19.40
2010,08,15,07,01,19.40
2010,08,15,07,02,19.50
2010,08,15,07,03,19.50
2010,08,15,07,04,19.60
2010,08,15,07,05,19.60
2010,08,15,07,06,19.70
2010,08,15,07,07,19.70
2010,08,15,07,08,19.70
2010,08,15,07,09,19.80
2010,08,15,07,10,19.80
2010,08,15,07,11,19.90
2010,08,15,07,12,19.90
2010,08,15,07,13,19.90
2010,08,15,07,14,19.90
2010,08,15,07,15,19.90
2010,08,15,07,16,19.90
2010,08,15,07,17,20.00
2010,08,15,07,18,20.10
2010,08,15,07,19,20.10
2010,08,15,07,20,20.20
2010,08,15,07,21,20.20
2010,08,15,07,22,20.30
2010,08,15,07,23,20.30
2010,08,15,07,24,20.30
2010,08,15,07,25,20.40
2010,08,15,07,26,20.40
2010,08,15,07,27,20.50
2010,08,15,07,28,20.50
2010,08,15,07,29,20.50
2010,08,15,07,30,20.50
2010,08,15,07,31,20.50
2010,08,15,07,32,20.50
2010,08,15,07,33,20.50
2010,08,15,07,34,20.50
2010,08,15,07,35,20.50
2010,08,15,07,36,20.50
2010,08,15,07,37,20.50
2010,08,15,07,38,20.50
2010,08,15,07,39,20.50
2010,08,15,07,40,20.50
2010,08,15,07,41,20.60
2010,08,15,07,42,20.60
2010,08,15,07,43,20.60
2010,08,15,07,44,20.60
2010,08,15,07,45,20.70
2010,08,15,07,46,20.70
2010,08,15,07,47,20.70
2010,08,15,07,48,20.80
2010,08,15,07,49,20.80
2010,08,15,07,50,20.80
2010,08,15,07,51,20.90
2010,08,15,07,52,20.90
2010,08,15,07,53,21.00
2010,08,15,07,54,21.00
2010,08,15,07,55,21.10
2010,08,15,07,56,21.20
2010,08,15,07,57,21.30
2010,08,15,07,58,21.40
2010,08,15,07,59,21.50
2010,08,15,08,00,21.60
2010,08,15,08,01,21.70
2010,08,15,08,02,21.80
2010,08,15,08,03,21.90
2010,08,15,08,04,22.00
2010,08,15,08,05,22.00
2010,08,15,08,06,22.10
2010,08,15,08,07,22.20
2010,08,15,08,08,22.30
2010,08,15,08,09,22.40
2010,08,15,08,10,22.50
2010,08,15,08,11,22.60
2010,08,15,08,12,22.70
2010,08,15,08,13,22.70
2010,08,15,08,14,22.80
2010,08,15,08,15,22.90
2010,08,15,08,16,22.90
2010,08,15,08,17,23.00
2010,08,15,08,18,23.10
2010,08,15,08,19,23.20
2010,08,15,08,20,23.20
2010,08,15,08,21,23.30
2010,08,15,08,22,23.30
2010,08,15,08,23,23.30
2010,08,15,08,24,23.30
2010,08,15,08,25,23.30
2010,08,15,08,26,23.40
2010,08,15,08,27,23.50
2010,08,15,08,28,23.60
2010,08,15,08,29,23.70
2010,08,15,08,30,23.70
2010,08,15,08,31,23.70
2010,08,15,08,32,23.70
2010,08,15,08,33,23.70
2010,08,15,08,34,23.70
2010,08,15,08,35,23.70
2010,08,15,08,36,23.70
2010,08,15,08,37,23.70
2010,08,15,08,38,23.70
2010,08,15,08,39,23.70
2010,08,15,08,40,23.70
2010,08,15,08,41,23.70
2010,08,15,08,42,23.70
2010,08,15,08,43,23.70
2010,08,15,08,44,23.70
2010,08,15,08,45,23.70
2010,08,15,08,46,23.70
2010,08,15,08,47,23.70
2010,08,15,08,48,23.70
2010,08,15,08,49,23.70
2010,08,15,08,50,23.70
2010,08,15,08,51,23.70
2010,08,15,08,52,23.70
2010,08,15,08,53,23.70
2010,08,15,08,54,23.70
2010,08,15,08,55,23.80
2010,08,15,08,56,23.80
2010,08,15,08,57,23.80
2010,08,15,08,58,23.90
2010,08,15,08,59,23.90
2010,08,15,09,00,23.90
2010,08,15,09,01,24.00
2010,08,15,09,02,24.10
2010,08,15,09,03,24.10
2010,08,15,09,04,24.20
2010,08,15,09,05,24.20
2010,08,15,09,06,24.30
2010,08,15,09,07,24.30
2010,08,15,09,08,24.40
2010,08,15,09,09,24.40
2010,08,15,09,10,24.40
2010,08,15,09,11,24.40
2010,08,15,09,12,24.40
2010,08,15,09,13,24.50
2010,08,15,09,14,24.50
2010,08,15,09,15,24.60
2010,08,15,09,16,24.60
2010,08,15,09,17,24.60
2010,08,15,09,18,24.70
2010,08,15,09,19,24.70
2010,08,15,09,20,24.80
2010,08,15,09,21,24.80
2010,08,15,09,22,24.80
2010,08,15,09,23,24.80
2010,08,15,09,24,24.80
2010,08,15,09,25,24.90
2010,08,15,09,26,24.90
2010,08,15,09,27,25.00
2010,08,15,09,28,25.00
2010,08,15,09,29,25.10
2010,08,15,09,30,25.10
2010,08,15,09,31,25.10
2010,08,15,09,32,25.20
2010,08,15,09,33,25.20
2010,08,15,09,34,25.20
2010,08,15,09,35,25.20
2010,08,15,09,36,25.20
2010,08,15,09,37,25.20
2010,08,15,09,38,25.30
2010,08,15,09,39,25.30
2010,08,15,09,40,25.30
2010,08,15,09,41,25.40
2010,08,15,09,42,25.40
2010,08,15,09,43,25.50
2010,08,15,09,44,25.50
2010,08,15,09,45,25.50
2010,08,15,09,46,25.60
2010,08,15,09,47,25.60
2010,08,15,09,48,25.60
2010,08,15,09,49,25.60
2010,08,15,09,50,25.60
2010,08,15,09,51,25.60
2010,08,15,09,52,25.70
2010,08,15,09,53,25.80
2010,08,15,09,54,25.80
2010,08,15,09,55,25.90
2010,08,15,09,56,26.00
2010,08,15,09,57,26.00
2010,08,15,09,58,26.20
2010,08,15,09,59,26.20
2010,08,15,10,00,26.30
2010,08,15,10,01,26.30
2010,08,15,10,02,26.30
2010,08,15,10,03,26.30
2010,08,15,10,04,26.30
2010,08,15,10,05,26.30
2010,08,15,10,06,26.30
2010,08,15,10,07,26.30
2010,08,15,10,08,26.30
2010,08,15,10,09,26.30
2010,08,15,10,10,26.40
2010,08,15,10,11,26.40
2010,08,15,10,12,26.40
2010,08,15,10,13,26.50
2010,08,15,10,14,26.60
2010,08,15,10,15,26.60
2010,08,15,10,16,26.60
2010,08,15,10,17,26.60
2010,08,15,10,18,26.70
2010,08,15,10,19,26.80
2010,08,15,10,20,26.80
2010,08,15,10,21,26.90
2010,08,15,10,22,26.90
2010,08,15,10,23,26.90
2010,08,15,10,24,26.90
2010,08,15,10,25,26.90
2010,08,15,10,26,26.90
2010,08,15,10,27,26.90
2010,08,15,10,28,26.90
2010,08,15,10,29,26.90
2010,08,15,10,30,26.90
2010,08,15,10,31,26.80
2010,08,15,10,32,26.70
2010,08,15,10,33,26.70
2010,08,15,10,34,26.70
2010,08,15,10,35,26.70
2010,08,15,10,36,26.70
2010,08,15,10,37,26.70
2010,08,15,10,38,26.70
2010,08,15,10,39,26.70
2010,08,15,10,40,26.70
2010,08,15,10,41,26.70
2010,08,15,10,42,26.70
2010,08,15,10,43,26.80
2010,08,15,10,44,26.80
2010,08,15,10,45,26.90
2010,08,15,10,46,27.00
2010,08,15,10,47,27.10
2010,08,15,10,48,27.10
2010,08,15,10,49,27.20
2010,08,15,10,50,27.30
2010,08,15,10,51,27.30
2010,08,15,10,52,27.30
2010,08,15,10,53,27.40
2010,08,15,10,54,27.40
2010,08,15,10,55,27.40
2010,08,15,10,56,27.60
2010,08,15,10,57,27.60
2010,08,15,10,58,27.70
2010,08,15,10,59,27.70
2010,08,15,11,00,27.80
2010,08,15,11,01,27.80
2010,08,15,11,02,27.90
2010,08,15,11,03,27.90
2010,08,15,11,04,27.90
2010,08,15,11,05,27.90
2010,08,15,11,06,28.00
2010,08,15,11,07,28.00
2010,08,15,11,08,28.00
2010,08,15,11,09,28.00
2010,08,15,11,10,28.00
2010,08,15,11,11,28.00
2010,08,15,11,12,28.10
2010,08,15,11,13,28.20
2010,08,15,11,14,28.30
2010,08,15,11,15,28.30
2010,08,15,11,16,28.40
2010,08,15,11,17,28.40
2010,08,15,11,18,28.40
2010,08,15,11,19,28.50
2010,08,15,11,20,28.50
2010,08,15,11,21,28.60
2010,08,15,11,22,28.60
2010,08,15,11,23,28.70
2010,08,15,11,24,28.70
2010,08,15,11,25,28.90
2010,08,15,11,26,28.90
2010,08,15,11,27,28.90
2010,08,15,11,28,29.00
2010,08,15,11,29,29.10
2010,08,15,11,30,29.10
2010,08,15,11,31,29.20
2010,08,15,11,32,29.20
2010,08,15,11,33,29.20
2010,08,15,11,34,29.20
2010,08,15,11,35,29.20
2010,08,15,11,36,29.20
2010,08,15,11,37,29.20
2010,08,15,11,38,29.20
2010,08,15,11,39,29.20
2010,08,15,11,40,29.20
2010,08,15,11,41,29.10
2010,08,15,11,42,29.00
2010,08,15,11,43,28.90
2010,08,15,11,44,28.80
2010,08,15,11,45,28.70
2010,08,15,11,46,28.70
2010,08,15,11,47,28.70
2010,08,15,11,48,28.80
2010,08,15,11,49,28.80
2010,08,15,11,50,28.80
2010,08,15,11,51,28.90
2010,08,15,11,52,28.90
2010,08,15,11,53,28.90
2010,08,15,11,54,28.90
2010,08,15,11,55,28.90
2010,08,15,11,56,28.90
2010,08,15,11,57,28.90
2010,08,15,11,58,28.90
2010,08,15,11,59,29.00
2010,08,15,12,00,29.10
2010,08,15,12,01,29.10
2010,08,15,12,02,29.20
2010,08,15,12,03,29.20
2010,08,15,12,04,29.30
2010,08,15,12,05,29.40
2010,08,15,12,06,29.50
2010,08,15,12,07,29.50
2010,08,15,12,08,29.50
2010,08,15,12,09,29.50
2010,08,15,12,10,29.50
2010,08,15,12,11,29.50
2010,08,15,12,12,29.50
2010,08,15,12,13,29.50
2010,08,15,12,14,29.50
2010,08,15,12,15,29.50
2010,08,15,12,16,29.60
2010,08,15,12,17,29.60
2010,08,15,12,18,29.60
2010,08,15,12,19,29.70
2010,08,15,12,20,29.70
2010,08,15,12,21,29.80
2010,08,15,12,22,29.90
2010,08,15,12,23,30.00
2010,08,15,12,24,30.10
2010,08,15,12,25,30.20
2010,08,15,12,26,30.20
2010,08,15,12,27,30.20
2010,08,15,12,28,30.20
2010,08,15,12,29,30.10
2010,08,15,12,30,30.10
2010,08,15,12,31,30.20
2010,08,15,12,32,30.10
2010,08,15,12,33,30.10
2010,08,15,12,34,30.10
2010,08,15,12,35,30.10
2010,08,15,12,36,30.10
2010,08,15,12,37,30.10
2010,08,15,12,38,30.10
2010,08,15,12,39,30.20
2010,08,15,12,40,30.20
2010,08,15,12,41,30.20
2010,08,15,12,42,30.20
2010,08,15,12,43,30.30
2010,08,15,12,44,30.30
2010,08,15,12,45,30.30
2010,08,15,12,46,30.30
2010,08,15,12,47,30.30
2010,08,15,12,48,30.30
2010,08,15,12,49,30.30
2010,08,15,12,50,30.30
2010,08,15,12,51,30.30
2010,08,15,12,52,30.30
2010,08,15,12,53,30.40
2010,08,15,12,54,30.50
2010,08,15,12,55,30.60
2010,08,15,12,56,30.70
2010,08,15,12,57,30.70
2010,08,15,12,58,30.70
2010,08,15,12,59,30.80
2010,08,15,13,00,30.80
2010,08,15,13,01,30.90
2010,08,15,13,02,30.80
2010,08,15,13,03,30.80
2010,08,15,13,04,30.80
2010,08,15,13,05,30.70
2010,08,15,13,06,30.70
2010,08,15,13,07,30.70
2010,08,15,13,08,30.80
2010,08,15,13,09,30.80
2010,08,15,13,10,30.80
2010,08,15,13,11,30.80
2010,08,15,13,12,30.80
2010,08,15,13,13,30.80
2010,08,15,13,14,30.90
2010,08,15,13,15,30.90
2010,08,15,13,16,30.90
2010,08,15,13,17,31.00
2010,08,15,13,18,31.00
2010,08,15,13,19,31.00
2010,08,15,13,20,30.90
2010,08,15,13,21,30.90
2010,08,15,13,22,30.90
2010,08,15,13,23,31.00
2010,08,15,13,24,31.00
2010,08,15,13,25,31.10
2010,08,15,13,26,31.10
2010,08,15,13,27,31.20
2010,08,15,13,28,31.20
2010,08,15,13,29,31.20
2010,08,15,13,30,31.30
2010,08,15,13,31,31.20
2010,08,15,13,32,31.20
2010,08,15,13,33,31.30
2010,08,15,13,34,31.30
2010,08,15,13,35,31.30
2010,08,15,13,36,31.30
2010,08,15,13,37,31.40
2010,08,15,13,38,31.50
2010,08,15,13,39,31.60
2010,08,15,13,40,31.60
2010,08,15,13,41,31.60
2010,08,15,13,42,31.60
2010,08,15,13,43,31.60
2010,08,15,13,44,31.60
2010,08,15,13,45,31.60
2010,08,15,13,46,31.70
2010,08,15,13,47,31.80
2010,08,15,13,48,31.90
2010,08,15,13,49,31.90
2010,08,15,13,50,31.90
2010,08,15,13,51,31.90
2010,08,15,13,52,31.90
2010,08,15,13,53,31.80
2010,08,15,13,54,31.80
2010,08,15,13,55,31.80
2010,08,15,13,56,31.80
2010,08,15,13,57,31.90
2010,08,15,13,58,31.90
2010,08,15,13,59,31.90
2010,08,15,14,00,31.90
2010,08,15,14,01,31.80
2010,08,15,14,02,31.90
2010,08,15,14,03,31.90
2010,08,15,14,04,32.00
2010,08,15,14,05,32.10
2010,08,15,14,06,32.10
2010,08,15,14,07,32.10
2010,08,15,14,08,32.10
2010,08,15,14,09,32.10
2010,08,15,14,10,32.10
2010,08,15,14,11,32.10
2010,08,15,14,12,32.10
2010,08,15,14,13,32.10
2010,08,15,14,14,32.10
2010,08,15,14,15,32.10
2010,08,15,14,16,32.20
2010,08,15,14,17,32.20
2010,08,15,14,18,32.30
2010,08,15,14,19,32.40
2010,08,15,14,20,32.50
2010,08,15,14,21,32.70
2010,08,15,14,22,32.80
2010,08,15,14,23,32.90
2010,08,15,14,24,33.00
2010,08,15,14,25,33.00
2010,08,15,14,26,33.00
2010,08,15,14,27,33.00
2010,08,15,14,28,33.00
2010,08,15,14,29,33.10
2010,08,15,14,30,33.20
2010,08,15,14,31,33.10
2010,08,15,14,32,33.10
2010,08,15,14,33,33.10
2010,08,15,14,34,33.00
2010,08,15,14,35,32.90
2010,08,15,14,36,32.90
2010,08,15,14,37,32.80
2010,08,15,14,38,32.80
2010,08,15,14,39,32.80
2010,08,15,14,40,32.80
2010,08,15,14,41,32.80
2010,08,15,14,42,32.90
2010,08,15,14,43,32.90
2010,08,15,14,44,33.00
2010,08,15,14,45,33.00
2010,08,15,14,46,33.00
2010,08,15,14,47,32.90
2010,08,15,14,48,32.80
2010,08,15,14,49,32.80
2010,08,15,14,50,32.80
2010,08,15,14,51,32.80
2010,08,15,14,52,32.80
2010,08,15,14,53,32.90
2010,08,15,14,54,32.90
2010,08,15,14,55,32.90
2010,08,15,14,56,32.90
2010,08,15,14,57,32.90
2010,08,15,14,58,32.90
2010,08,15,14,59,33.00
2010,08,15,15,00,33.10
2010,08,15,15,01,33.10
2010,08,15,15,02,33.20
2010,08,15,15,03,33.20
2010,08,15,15,04,33.20
2010,08,15,15,05,33.20
2010,08,15,15,06,33.20
2010,08,15,15,07,33.20
2010,08,15,15,08,33.20
2010,08,15,15,09,33.10
2010,08,15,15,10,33.10
2010,08,15,15,11,32.90
2010,08,15,15,12,32.70
2010,08,15,15,13,32.50
2010,08,15,15,14,32.50
2010,08,15,15,15,32.40
2010,08,15,15,16,32.40
2010,08,15,15,17,32.30
2010,08,15,15,18,32.30
2010,08,15,15,19,32.30
2010,08,15,15,20,32.40
2010,08,15,15,21,32.40
2010,08,15,15,22,32.40
2010,08,15,15,23,32.30
2010,08,15,15,24,32.30
2010,08,15,15,25,32.20
2010,08,15,15,26,32.20
2010,08,15,15,27,32.20
2010,08,15,15,28,32.20
2010,08,15,15,29,32.10
2010,08,15,15,30,31.90
2010,08,15,15,31,31.90
2010,08,15,15,32,31.80
2010,08,15,15,33,31.80
2010,08,15,15,34,31.80
2010,08,15,15,35,31.80
2010,08,15,15,36,31.70
2010,08,15,15,37,31.70
2010,08,15,15,38,31.60
2010,08,15,15,39,31.70
2010,08,15,15,40,31.70
2010,08,15,15,41,31.80
2010,08,15,15,42,31.80
2010,08,15,15,43,31.80
2010,08,15,15,44,31.60
2010,08,15,15,45,31.50
2010,08,15,15,46,31.30
2010,08,15,15,47,31.20
2010,08,15,15,48,31.10
2010,08,15,15,49,31.10
2010,08,15,15,50,31.20
2010,08,15,15,51,31.40
2010,08,15,15,52,31.50
2010,08,15,15,53,31.60
2010,08,15,15,54,31.60
2010,08,15,15,55,31.60
2010,08,15,15,56,31.70
2010,08,15,15,57,31.70
2010,08,15,15,58,31.60
2010,08,15,15,59,31.50
2010,08,15,16,00,31.40
2010,08,15,16,01,31.10
2010,08,15,16,02,30.90
2010,08,15,16,03,30.60
2010,08,15,16,04,30.30
2010,08,15,16,05,30.00
2010,08,15,16,06,29.70
2010,08,15,16,07,29.40
2010,08,15,16,08,29.20
2010,08,15,16,09,29.10
2010,08,15,16,10,28.90
2010,08,15,16,11,28.80
2010,08,15,16,12,28.70
2010,08,15,16,13,28.70
2010,08,15,16,14,28.70
2010,08,15,16,15,28.60
2010,08,15,16,16,28.60
2010,08,15,16,17,28.60
2010,08,15,16,18,28.50
2010,08,15,16,19,28.40
2010,08,15,16,20,28.40
2010,08,15,16,21,28.40
2010,08,15,16,22,28.50
2010,08,15,16,23,28.60
2010,08,15,16,24,28.50
2010,08,15,16,25,28.60
2010,08,15,16,26,28.70
2010,08,15,16,27,28.80
2010,08,15,16,28,28.90
2010,08,15,16,29,29.00
2010,08,15,16,30,29.10
2010,08,15,16,31,29.20
2010,08,15,16,32,29.30
2010,08,15,16,33,29.30
2010,08,15,16,34,29.40
2010,08,15,16,35,29.50
2010,08,15,16,36,29.50
2010,08,15,16,37,29.40
2010,08,15,16,38,29.20
2010,08,15,16,39,29.10
2010,08,15,16,40,28.90
2010,08,15,16,41,28.80
2010,08,15,16,42,28.70
2010,08,15,16,43,28.60
2010,08,15,16,44,28.60
2010,08,15,16,45,28.60
2010,08,15,16,46,28.70
2010,08,15,16,47,28.80
2010,08,15,16,48,28.80
2010,08,15,16,49,28.90
2010,08,15,16,50,29.00
2010,08,15,16,51,29.10
2010,08,15,16,52,29.10
2010,08,15,16,53,29.20
2010,08,15,16,54,29.20
2010,08,15,16,55,29.20
2010,08,15,16,56,29.20
2010,08,15,16,57,29.10
2010,08,15,16,58,28.90
2010,08,15,16,59,28.80
2010,08,15,17,00,28.60
2010,08,15,17,01,28.50
2010,08,15,17,02,28.40
2010,08,15,17,03,28.30
2010,08,15,17,04,28.20
2010,08,15,17,05,28.10
2010,08,15,17,06,28.00
2010,08,15,17,07,27.90
2010,08,15,17,08,27.90
2010,08,15,17,09,27.90
2010,08,15,17,10,27.90
2010,08,15,17,11,27.90
2010,08,15,17,12,27.90
2010,08,15,17,13,27.90
2010,08,15,17,14,28.00
2010,08,15,17,15,27.90
2010,08,15,17,16,27.90
2010,08,15,17,17,28.00
2010,08,15,17,18,28.00
2010,08,15,17,19,28.10